Location: Unspecified
(0.0000°N, 0.0000°E)
Time: 21:02:41
(UTC+01:00)

Orbus 21S - Visible Passes

Search period start: 06 March 2015 00:00
Search period end: 16 March 2015 00:00
Orbit: 275 x 33442 km, 24.2° (Epoch: 05 March)

Date Brightness Start Highest point End Pass type
(mag) Time Alt. Az. Time Alt. Az. Time Alt. Az.
07 Mar 7.0 12:38:14 10° WSW 21:17:02 67° NNW 21:41:03 32° NE visible
09 Mar 6.9 13:42:03 10° WSW 22:28:50 51° NNW 22:38:53 40° N visible
11 Mar 7.0 14:47:58 10° WSW 23:34:54 35° NNW 23:36:30 35° NNW visible
13 Mar 3.9 05:24:09 25° NE 05:24:09 25° NE 05:27:30 10° E visible
13 Mar 7.4 15:58:05 10° WSW 00:33:52 21° NW 00:33:52 21° NW visible
14 Mar 7.1 10:58:46 10° WSW 18:44:28 86° NNW 20:07:27 10° NE visible
15 Mar 2.8 06:21:05 18° WNW 06:23:10 79° SSW 06:33:54 10° ESE visible
